contact:dominique.lefevre@mio.osupytheas.fr, maurice.libes@osupytheas.fr, didier.mallarino@osupytheas.fr
Project:EMSO http://www.emso-fr.org/EMSO-France
Depth: 2436.0 m
Title:EMSO Ligure Ouest : Data MII capteur AQUADOPP
Date,Latitude,Longitude,X_East,Y_North,Z_Up,Amplitude_X,Amplitude_Y,Amplitude_Z,Batterie,SoundSpeed,Heading,Pitch,Roll,Pressure,TIS,Speed,Direction
, degrees North, degrees East, m.s-1, m.s-1,m.s-1, 1, 1, 1, Volt, m.s-1, degree, degree, degree, dbar, degree_C, m.s-1, degree
2022-01-12T00:04:03,42.805,6.029,0.055,-0.002,0.037,103.0,106.0,102.0,13.4,1505.2,331.0,-0.8,1.8,2470.728,13.28,0.055,92.1
2022-01-12T00:07:03,42.805,6.029,0.076,0.0,0.028,104.0,106.0,103.0,13.4,1505.2,330.2,-0.8,1.8,2470.721,13.28,0.075,90.0
2022-01-12T00:10:03,42.805,6.029,0.037,-0.007,0.011,104.0,104.0,101.0,13.4,1505.2,326.5,-0.7,1.8,2470.699,13.28,0.037,100.7
2022-01-12T00:13:03,42.805,6.029,0.07,-0.015,0.023,103.0,108.0,102.0,13.4,1505.2,328.6,-0.8,1.8,2470.737,13.28,0.071,102.1
2022-01-12T00:16:03,42.805,6.029,0.064,0.007,0.023,103.0,107.0,102.0,13.4,1505.2,324.4,-0.7,1.8,2470.716,13.28,0.064,83.8
2022-01-12T00:19:03,42.805,6.029,0.035,-0.003,0.0,101.0,107.0,102.0,13.4,1505.2,327.8,-0.8,1.8,2470.743,13.28,0.035,94.9
2022-01-12T00:22:03,42.805,6.029,0.071,0.007,0.052,103.0,105.0,102.0,13.4,1505.2,325.9,-0.8,1.8,2470.674,13.28,0.071,84.4
2022-01-12T00:25:03,42.805,6.029,0.046,-0.004,0.036,104.0,107.0,101.0,13.4,1505.2,328.3,-0.7,1.8,2470.686,13.28,0.046,95.0
2022-01-12T00:28:03,42.805,6.029,0.038,0.004,-0.002,102.0,107.0,102.0,13.4,1505.2,331.1,-0.8,1.8,2470.665,13.28,0.038,84.0
2022-01-12T00:31:03,42.805,6.029,0.047,-0.012,0.007,103.0,106.0,102.0,13.4,1505.2,327.9,-0.8,1.8,2470.731,13.28,0.048,104.3
2022-01-12T00:34:03,42.805,6.029,0.076,0.009,0.014,103.0,105.0,101.0,13.3,1505.2,324.6,-0.8,1.8,2470.712,13.28,0.076,83.2
2022-01-12T00:37:03,42.805,6.029,0.044,-0.005,0.016,103.0,106.0,102.0,13.3,1505.2,331.9,-0.8,1.8,2470.74,13.28,0.044,96.5
2022-01-12T00:40:03,42.805,6.029,0.05,0.005,0.039,103.0,106.0,102.0,13.4,1505.2,327.0,-0.8,1.8,2470.716,13.28,0.05,84.3
2022-01-12T00:43:03,42.805,6.029,0.039,-0.014,-0.004,103.0,107.0,102.0,13.4,1505.2,327.5,-0.8,1.8,2470.689,13.28,0.041,109.7
2022-01-12T00:46:03,42.805,6.029,0.056,-0.021,-0.038,103.0,107.0,102.0,13.4,1505.2,327.9,-0.7,1.8,2470.696,13.28,0.059,110.6
2022-01-12T00:49:03,42.805,6.029,0.083,-0.015,0.016,103.0,106.0,102.0,13.4,1505.2,326.8,-0.8,1.8,2470.696,13.28,0.084,100.2
2022-01-12T00:52:03,42.805,6.029,0.034,-0.017,0.003,104.0,105.0,101.0,13.4,1505.2,329.0,-0.7,1.8,2470.718,13.28,0.038,116.6
2022-01-12T00:55:03,42.805,6.029,0.059,0.0,0.027,103.0,106.0,101.0,13.3,1505.2,327.0,-0.8,1.8,2470.723,13.28,0.058,90.0
2022-01-12T00:58:03,42.805,6.029,0.058,-0.011,0.048,103.0,105.0,102.0,13.3,1505.2,324.8,-0.7,1.8,2470.727,13.28,0.059,100.7
2022-01-12T01:04:03,42.805,6.029,0.069,-0.019,0.018,105.0,108.0,103.0,13.4,1505.2,329.2,-0.8,1.8,2470.794,13.28,0.071,105.4
2022-01-12T01:07:03,42.805,6.029,0.044,0.013,0.02,104.0,105.0,103.0,13.3,1505.2,327.7,-0.8,1.8,2470.737,13.28,0.045,73.5
2022-01-12T01:10:03,42.805,6.029,0.068,-0.008,0.023,104.0,106.0,102.0,13.4,1505.2,326.2,-0.8,1.8,2470.747,13.28,0.068,96.7
2022-01-12T01:13:03,42.805,6.029,0.055,-0.017,0.035,103.0,107.0,102.0,13.4,1505.2,325.5,-0.8,1.8,2470.772,13.28,0.057,107.2
2022-01-12T01:16:03,42.805,6.029,0.055,-0.013,-0.017,103.0,106.0,102.0,13.4,1505.2,326.6,-0.8,1.8,2470.812,13.28,0.056,103.3
2022-01-12T01:19:03,42.805,6.029,0.053,-0.005,-0.008,104.0,106.0,102.0,13.4,1505.2,323.8,-0.7,1.8,2470.734,13.28,0.053,95.4
2022-01-12T01:22:03,42.805,6.029,0.076,-0.002,0.026,105.0,107.0,103.0,13.4,1505.2,327.2,-0.8,1.8,2470.726,13.28,0.076,91.5
2022-01-12T01:25:03,42.805,6.029,0.063,-0.019,0.019,105.0,106.0,102.0,13.4,1505.2,330.5,-0.8,1.8,2470.767,13.28,0.065,106.8
2022-01-12T01:28:03,42.805,6.029,0.048,0.0,0.043,104.0,105.0,103.0,13.4,1505.2,331.9,-0.8,1.8,2470.754,13.28,0.048,90.0
2022-01-12T01:31:03,42.805,6.029,0.065,-0.015,0.005,103.0,106.0,103.0,13.3,1505.2,329.2,-0.7,1.8,2470.76,13.28,0.066,103.0
2022-01-12T01:34:03,42.805,6.029,0.04,-0.013,0.016,103.0,105.0,102.0,13.4,1505.2,326.1,-0.8,1.8,2470.788,13.28,0.042,108.0
2022-01-12T01:37:03,42.805,6.029,0.064,-0.02,0.002,104.0,105.0,102.0,13.4,1505.2,326.6,-0.8,1.8,2470.788,13.28,0.067,107.4
2022-01-12T01:40:03,42.805,6.029,0.055,0.003,0.037,105.0,105.0,102.0,13.4,1505.2,328.5,-0.7,1.8,2470.754,13.28,0.055,86.9
2022-01-12T01:43:03,42.805,6.029,0.048,-0.004,0.004,104.0,106.0,103.0,13.4,1505.2,329.0,-0.7,1.8,2470.791,13.28,0.048,94.8
2022-01-12T01:46:03,42.805,6.029,0.06,-0.02,0.01,104.0,106.0,102.0,13.4,1505.2,331.6,-0.8,1.8,2470.81,13.28,0.063,108.4
2022-01-12T01:49:03,42.805,6.029,0.068,-0.004,-0.001,105.0,106.0,103.0,13.4,1505.2,324.6,-0.8,1.8,2470.793,13.28,0.068,93.4
2022-01-12T01:52:03,42.805,6.029,0.054,0.0,0.021,106.0,107.0,102.0,13.4,1505.2,329.4,-0.7,1.8,2470.761,13.28,0.053,90.0
2022-01-12T01:55:03,42.805,6.029,0.043,-0.025,-0.002,104.0,106.0,102.0,13.3,1505.2,329.9,-0.8,1.8,2470.781,13.28,0.049,120.2
2022-01-12T01:58:03,42.805,6.029,0.059,-0.029,-0.017,105.0,105.0,103.0,13.3,1505.2,325.8,-0.7,1.8,2470.789,13.28,0.065,116.2
2022-01-12T02:04:03,42.805,6.029,0.069,-0.005,-0.015,105.0,106.0,102.0,13.3,1505.2,324.4,-0.8,1.8,2470.814,13.28,0.069,94.1
2022-01-12T02:07:03,42.805,6.029,0.054,-0.033,-0.015,105.0,104.0,103.0,13.3,1505.2,328.0,-0.8,1.8,2470.765,13.28,0.063,121.4
2022-01-12T02:10:03,42.805,6.029,0.043,-0.033,-0.016,104.0,107.0,101.0,13.4,1505.2,331.1,-0.8,1.8,2470.788,13.28,0.054,127.5
2022-01-12T02:13:03,42.805,6.029,0.053,-0.007,0.021,105.0,105.0,103.0,13.4,1505.2,330.1,-0.7,1.8,2470.743,13.28,0.053,97.5
2022-01-12T02:16:03,42.805,6.029,0.043,-0.017,0.028,104.0,105.0,102.0,13.4,1505.2,331.1,-0.8,1.8,2470.822,13.28,0.046,111.6
2022-01-12T02:19:03,42.805,6.029,0.056,-0.009,0.006,104.0,107.0,102.0,13.3,1505.2,329.0,-0.8,1.8,2470.819,13.28,0.056,99.1
2022-01-12T02:22:03,42.805,6.029,0.07,-0.019,0.044,106.0,105.0,102.0,13.4,1505.2,327.5,-0.7,1.8,2470.769,13.28,0.072,105.2
2022-01-12T02:25:03,42.805,6.029,0.045,-0.034,-0.007,105.0,106.0,103.0,13.4,1505.2,329.8,-0.7,1.8,2470.761,13.28,0.056,127.1
2022-01-12T02:28:03,42.805,6.029,0.044,-0.017,0.023,105.0,106.0,103.0,13.4,1505.2,327.1,-0.7,1.8,2470.734,13.28,0.047,111.1
2022-01-12T02:31:03,42.805,6.029,0.039,0.001,0.063,106.0,105.0,102.0,13.4,1505.2,329.6,-0.7,1.8,2470.747,13.28,0.039,88.5
2022-01-12T02:34:03,42.805,6.029,0.071,-0.004,0.02,104.0,107.0,103.0,13.4,1505.2,329.8,-0.7,1.8,2470.786,13.28,0.071,93.2
2022-01-12T02:37:03,42.805,6.029,0.063,-0.008,0.024,106.0,106.0,102.0,13.4,1505.2,327.7,-0.8,1.8,2470.778,13.28,0.063,97.2
2022-01-12T02:40:03,42.805,6.029,0.044,-0.021,0.014,105.0,105.0,103.0,13.4,1505.2,331.1,-0.8,1.8,2470.79,13.28,0.048,115.5
2022-01-12T02:43:03,42.805,6.029,0.063,-0.006,0.0,106.0,105.0,104.0,13.4,1505.2,324.5,-0.8,1.8,2470.778,13.28,0.063,95.4
2022-01-12T02:46:03,42.805,6.029,0.076,-0.006,0.036,104.0,105.0,103.0,13.4,1505.2,325.8,-0.8,1.8,2470.804,13.28,0.076,94.5
2022-01-12T02:49:03,42.805,6.029,0.023,-0.007,0.003,105.0,105.0,103.0,13.4,1505.2,329.9,-0.8,1.9,2470.823,13.28,0.024,106.9
2022-01-12T02:52:03,42.805,6.029,0.062,-0.003,-0.003,105.0,106.0,104.0,13.4,1505.2,328.9,-0.8,1.8,2470.819,13.28,0.062,92.8
2022-01-12T02:55:03,42.805,6.029,0.056,0.007,0.008,105.0,105.0,103.0,13.4,1505.2,327.2,-0.7,1.8,2470.788,13.28,0.056,82.9
2022-01-12T02:58:03,42.805,6.029,0.06,-0.02,0.036,105.0,105.0,103.0,13.4,1505.2,330.5,-0.8,1.9,2470.803,13.28,0.063,108.4
2022-01-12T03:04:03,42.805,6.029,0.055,-0.019,-0.01,107.0,105.0,103.0,13.4,1505.2,330.1,-0.8,1.8,2470.81,13.28,0.058,109.1
2022-01-12T03:07:03,42.805,6.029,0.07,-0.038,0.008,106.0,107.0,102.0,13.3,1505.2,331.8,-0.8,1.8,2470.811,13.28,0.079,118.5
2022-01-12T03:10:03,42.805,6.029,0.043,-0.022,0.012,105.0,106.0,103.0,13.4,1505.2,327.8,-0.8,1.8,2470.769,13.28,0.048,117.1
2022-01-12T03:13:03,42.805,6.029,0.039,-0.02,0.0,106.0,107.0,104.0,13.4,1505.2,328.8,-0.7,1.8,2470.767,13.28,0.043,117.1
2022-01-12T03:16:03,42.805,6.029,0.071,-0.013,0.027,106.0,105.0,103.0,13.3,1505.2,330.5,-0.8,1.8,2470.801,13.28,0.072,100.4
2022-01-12T03:19:03,42.805,6.029,0.032,0.003,0.012,105.0,105.0,104.0,13.4,1505.2,331.2,-0.8,1.8,2470.827,13.28,0.032,84.6
2022-01-12T03:22:03,42.805,6.029,0.08,-0.017,0.008,105.0,107.0,103.0,13.3,1505.2,331.6,-0.8,1.9,2470.794,13.28,0.081,102.0
2022-01-12T03:25:03,42.805,6.029,0.045,-0.012,0.02,106.0,105.0,103.0,13.4,1505.2,326.9,-0.7,1.8,2470.772,13.28,0.046,104.9
2022-01-12T03:28:03,42.805,6.029,0.058,-0.019,-0.001,106.0,107.0,103.0,13.4,1505.2,328.3,-0.8,1.8,2470.768,13.28,0.061,108.1
2022-01-12T03:31:03,42.805,6.029,0.051,-0.019,-0.011,105.0,105.0,103.0,13.4,1505.2,323.7,-0.8,1.8,2470.804,13.28,0.054,110.4
2022-01-12T03:34:03,42.805,6.029,0.065,-0.018,0.041,105.0,106.0,104.0,13.3,1505.2,326.0,-0.8,1.8,2470.766,13.28,0.067,105.5
2022-01-12T03:37:03,42.805,6.029,0.05,0.005,-0.01,107.0,104.0,105.0,13.3,1505.2,326.2,-0.8,1.8,2470.783,13.28,0.05,84.3
2022-01-12T03:40:03,42.805,6.029,0.064,-0.002,0.03,105.0,106.0,104.0,13.4,1505.2,326.3,-0.7,1.8,2470.804,13.28,0.064,91.8
2022-01-12T03:43:03,42.805,6.029,0.061,-0.026,0.033,106.0,107.0,104.0,13.3,1505.2,329.3,-0.7,1.8,2470.799,13.28,0.066,113.1
2022-01-12T03:46:03,42.805,6.029,0.072,-0.014,0.0,105.0,106.0,104.0,13.4,1505.2,331.1,-0.8,1.8,2470.796,13.28,0.073,101.0
2022-01-12T03:49:03,42.805,6.029,0.047,-0.036,0.006,105.0,106.0,104.0,13.3,1505.2,331.0,-0.7,1.8,2470.757,13.28,0.059,127.5
2022-01-12T03:52:03,42.805,6.029,0.072,-0.022,0.03,106.0,105.0,104.0,13.4,1505.2,324.2,-0.7,1.8,2470.78,13.28,0.075,107.0
2022-01-12T03:55:03,42.805,6.029,0.045,-0.007,0.032,106.0,106.0,104.0,13.4,1505.2,326.3,-0.8,1.9,2470.778,13.28,0.045,98.8
2022-01-12T03:58:03,42.805,6.029,0.048,-0.028,-0.002,107.0,105.0,104.0,13.4,1505.2,328.0,-0.7,1.8,2470.75,13.28,0.055,120.3
2022-01-12T04:04:03,42.805,6.029,0.024,-0.001,-0.017,105.0,105.0,104.0,13.4,1505.2,331.8,-0.8,1.8,2470.865,13.28,0.024,92.4
2022-01-12T04:07:03,42.805,6.029,0.046,-0.017,0.006,107.0,106.0,104.0,13.4,1505.2,331.4,-0.8,1.8,2470.807,13.28,0.049,110.3
2022-01-12T04:10:03,42.805,6.029,0.049,-0.005,0.004,107.0,106.0,104.0,13.4,1505.2,327.5,-0.7,1.8,2470.817,13.28,0.049,95.8
2022-01-12T04:13:03,42.805,6.029,0.057,-0.044,-0.006,107.0,106.0,103.0,13.4,1505.2,324.6,-0.8,1.8,2470.844,13.28,0.072,127.7
2022-01-12T04:16:03,42.805,6.029,0.038,-0.03,-0.005,107.0,105.0,104.0,13.4,1505.2,331.0,-0.8,1.8,2470.77,13.28,0.048,128.3
2022-01-12T04:19:03,42.805,6.029,0.052,-0.005,0.014,107.0,107.0,104.0,13.4,1505.2,325.2,-0.7,1.8,2470.8,13.28,0.052,95.5
2022-01-12T04:22:03,42.805,6.029,0.051,-0.018,-0.002,106.0,107.0,103.0,13.4,1505.2,330.2,-0.7,1.8,2470.809,13.28,0.054,109.4
2022-01-12T04:25:03,42.805,6.029,0.059,-0.026,-0.001,105.0,106.0,103.0,13.4,1505.2,327.9,-0.8,1.8,2470.78,13.28,0.064,113.8
2022-01-12T04:28:03,42.805,6.029,0.07,-0.018,0.02,105.0,106.0,104.0,13.4,1505.2,331.3,-0.7,1.8,2470.792,13.28,0.072,104.4
2022-01-12T04:31:03,42.805,6.029,0.062,-0.024,-0.005,105.0,105.0,103.0,13.4,1505.2,330.0,-0.7,1.8,2470.821,13.28,0.066,111.2
2022-01-12T04:34:03,42.805,6.029,0.062,-0.017,0.0,105.0,106.0,103.0,13.3,1505.2,328.0,-0.7,1.8,2470.777,13.28,0.064,105.3
2022-01-12T04:37:03,42.805,6.029,0.086,-0.003,0.038,106.0,107.0,103.0,13.4,1505.2,326.6,-0.8,1.8,2470.826,13.28,0.086,92.0
2022-01-12T04:40:03,42.805,6.029,0.049,-0.008,0.039,107.0,105.0,104.0,13.4,1505.2,326.3,-0.8,1.8,2470.796,13.28,0.049,99.3
2022-01-12T04:43:03,42.805,6.029,0.075,-0.037,-0.003,106.0,106.0,104.0,13.3,1505.2,326.7,-0.7,1.8,2470.765,13.28,0.083,116.3
2022-01-12T04:46:03,42.805,6.029,0.049,-0.025,0.026,107.0,105.0,104.0,13.3,1505.2,326.9,-0.7,1.8,2470.747,13.28,0.055,117.0
2022-01-12T04:49:03,42.805,6.029,0.06,-0.014,0.047,106.0,105.0,103.0,13.3,1505.2,325.9,-0.7,1.8,2470.747,13.28,0.061,103.1
2022-01-12T04:52:03,42.805,6.029,0.065,-0.014,0.005,107.0,106.0,103.0,13.4,1505.2,325.7,-0.7,1.8,2470.792,13.28,0.066,102.2
2022-01-12T04:55:03,42.805,6.029,0.047,-0.017,0.0,106.0,106.0,103.0,13.4,1505.2,328.6,-0.7,1.8,2470.768,13.28,0.049,109.9
2022-01-12T04:58:03,42.805,6.029,0.062,-0.033,0.015,105.0,105.0,104.0,13.3,1505.2,328.6,-0.7,1.8,2470.768,13.28,0.07,118.0
2022-01-12T05:04:03,42.805,6.029,0.058,-0.026,-0.004,106.0,106.0,103.0,13.4,1505.2,326.0,-0.8,1.8,2470.801,13.28,0.063,114.1
2022-01-12T05:07:03,42.805,6.029,0.062,-0.038,0.032,104.0,105.0,102.0,13.4,1505.2,330.8,-0.8,1.8,2470.788,13.28,0.072,121.5
2022-01-12T05:10:03,42.805,6.029,0.062,-0.03,-0.018,104.0,106.0,103.0,13.3,1505.2,323.9,-0.8,1.8,2470.809,13.28,0.068,115.8
2022-01-12T05:13:03,42.805,6.029,0.063,-0.029,0.01,105.0,106.0,103.0,13.4,1505.2,329.6,-0.8,1.8,2470.778,13.28,0.069,114.7
2022-01-12T05:16:03,42.805,6.029,0.051,-0.019,0.004,106.0,107.0,103.0,13.3,1505.2,330.2,-0.8,1.8,2470.807,13.28,0.054,110.4
2022-01-12T05:19:03,42.805,6.029,0.058,-0.023,-0.004,106.0,105.0,102.0,13.4,1505.2,332.0,-0.8,1.8,2470.761,13.28,0.062,111.6
2022-01-12T05:22:03,42.805,6.029,0.045,-0.026,-0.019,106.0,105.0,103.0,13.3,1505.2,331.2,-0.7,1.8,2470.771,13.28,0.051,120.0
2022-01-12T05:25:03,42.805,6.029,0.061,-0.048,0.002,106.0,105.0,103.0,13.3,1505.2,328.6,-0.7,1.8,2470.782,13.28,0.077,128.2
2022-01-12T05:28:03,42.805,6.029,0.067,-0.005,0.034,104.0,104.0,103.0,13.4,1505.2,326.7,-0.8,1.8,2470.774,13.28,0.067,94.3
2022-01-12T05:31:03,42.805,6.029,0.014,-0.028,-0.01,105.0,103.0,102.0,13.4,1505.2,329.5,-0.8,1.8,2470.756,13.28,0.031,153.4
2022-01-12T05:34:03,42.805,6.029,0.044,-0.017,0.003,105.0,105.0,102.0,13.4,1505.2,329.3,-0.8,1.8,2470.748,13.28,0.047,111.1
2022-01-12T05:37:03,42.805,6.029,0.036,-0.026,-0.022,105.0,105.0,103.0,13.4,1505.2,328.7,-0.8,1.8,2470.729,13.28,0.044,125.8
2022-01-12T05:40:03,42.805,6.029,0.036,0.003,-0.023,105.0,105.0,103.0,13.4,1505.2,326.5,-0.7,1.8,2470.766,13.28,0.036,85.2
2022-01-12T05:43:03,42.805,6.029,0.027,0.005,-0.002,106.0,105.0,102.0,13.4,1505.2,326.5,-0.7,1.8,2470.726,13.28,0.027,79.5
2022-01-12T05:46:03,42.805,6.029,0.048,-0.024,-0.016,107.0,105.0,103.0,13.4,1505.2,330.0,-0.7,1.8,2470.72,13.28,0.053,116.6
2022-01-12T05:49:03,42.805,6.029,0.048,-0.005,0.007,105.0,106.0,103.0,13.4,1505.2,329.2,-0.8,1.8,2470.749,13.28,0.048,95.9
2022-01-12T05:52:03,42.805,6.029,0.049,-0.021,-0.025,106.0,105.0,102.0,13.4,1505.2,329.8,-0.8,1.8,2470.745,13.28,0.053,113.2
2022-01-12T05:55:03,42.805,6.029,0.05,-0.032,0.003,106.0,104.0,102.0,13.4,1505.2,324.4,-0.7,1.8,2470.734,13.28,0.059,122.6
2022-01-12T05:58:03,42.805,6.029,0.059,-0.04,0.01,104.0,104.0,103.0,13.4,1505.2,331.4,-0.7,1.8,2470.754,13.28,0.071,124.1
2022-01-12T06:04:03,42.805,6.029,0.043,-0.02,-0.008,105.0,104.0,103.0,13.4,1505.2,325.4,-0.8,1.8,2470.743,13.28,0.047,114.9
2022-01-12T06:07:03,42.805,6.029,0.054,-0.021,-0.001,105.0,104.0,102.0,13.4,1505.2,326.2,-0.7,1.8,2470.775,13.28,0.057,111.2
2022-01-12T06:10:03,42.805,6.029,0.038,-0.007,0.007,105.0,104.0,103.0,13.4,1505.2,328.4,-0.8,1.8,2470.746,13.28,0.038,100.4
2022-01-12T06:13:03,42.805,6.029,0.047,-0.019,0.001,105.0,105.0,103.0,13.4,1505.2,330.9,-0.8,1.9,2470.757,13.28,0.05,112.0
2022-01-12T06:16:03,42.805,6.029,0.057,-0.025,-0.022,104.0,106.0,103.0,13.4,1505.2,326.2,-0.7,1.8,2470.727,13.28,0.062,113.7
2022-01-12T06:19:03,42.805,6.029,0.045,-0.022,0.01,105.0,106.0,102.0,13.4,1505.2,329.0,-0.8,1.8,2470.738,13.28,0.05,116.1
2022-01-12T06:22:03,42.805,6.029,0.056,-0.015,0.03,104.0,104.0,103.0,13.4,1505.2,328.4,-0.7,1.8,2470.726,13.28,0.057,105.0
2022-01-12T06:25:03,42.805,6.029,0.042,-0.031,0.0,106.0,104.0,102.0,13.3,1505.2,326.0,-0.7,1.8,2470.783,13.28,0.052,126.4
2022-01-12T06:28:03,42.805,6.029,0.054,-0.035,-0.006,105.0,104.0,103.0,13.4,1505.2,331.3,-0.7,1.8,2470.757,13.28,0.064,123.0
2022-01-12T06:31:03,42.805,6.029,0.046,-0.028,0.012,106.0,105.0,103.0,13.4,1505.2,326.7,-0.8,1.8,2470.729,13.28,0.053,121.3
2022-01-12T06:34:03,42.805,6.029,0.059,-0.016,0.019,106.0,106.0,104.0,13.3,1505.2,327.1,-0.7,1.8,2470.726,13.28,0.061,105.2
2022-01-12T06:37:03,42.805,6.029,0.047,-0.02,0.005,105.0,105.0,103.0,13.4,1505.2,327.1,-0.7,1.8,2470.72,13.28,0.051,113.0
2022-01-12T06:40:03,42.805,6.029,0.053,-0.012,-0.033,105.0,104.0,102.0,13.4,1505.2,326.7,-0.8,1.8,2470.705,13.28,0.054,102.8
2022-01-12T06:43:03,42.805,6.029,0.046,-0.004,-0.013,105.0,107.0,102.0,13.4,1505.2,326.7,-0.8,1.8,2470.751,13.28,0.046,95.0
2022-01-12T06:46:03,42.805,6.029,0.058,-0.025,-0.009,105.0,106.0,101.0,13.4,1505.2,326.8,-0.8,1.8,2470.755,13.28,0.063,113.3
2022-01-12T06:49:03,42.805,6.029,0.077,-0.001,0.039,104.0,105.0,102.0,13.3,1505.2,325.5,-0.8,1.8,2470.767,13.28,0.077,90.7
2022-01-12T06:52:03,42.805,6.029,0.053,-0.01,0.016,105.0,105.0,103.0,13.3,1505.2,329.3,-0.7,1.8,2470.756,13.28,0.053,100.7
2022-01-12T06:55:03,42.805,6.029,0.042,-0.024,-0.007,105.0,104.0,102.0,13.4,1505.2,325.5,-0.8,1.8,2470.707,13.28,0.048,119.7
2022-01-12T06:58:03,42.805,6.029,0.055,-0.017,0.013,105.0,105.0,103.0,13.3,1505.2,325.1,-0.8,1.8,2470.741,13.28,0.057,107.2
2022-01-12T07:04:03,42.805,6.029,0.063,-0.025,-0.01,105.0,104.0,103.0,13.4,1505.2,327.4,-0.8,1.8,2470.783,13.28,0.067,111.6
2022-01-12T07:07:03,42.805,6.029,0.027,0.0,-0.014,105.0,105.0,103.0,13.4,1505.2,329.6,-0.8,1.8,2470.738,13.28,0.026,90.0
2022-01-12T07:10:03,42.805,6.029,0.038,-0.018,0.0,104.0,105.0,103.0,13.4,1505.2,328.2,-0.7,1.8,2470.754,13.28,0.042,115.3
2022-01-12T07:13:03,42.805,6.029,0.056,-0.024,0.013,105.0,104.0,103.0,13.3,1505.2,327.0,-0.7,1.8,2470.783,13.28,0.06,113.2
2022-01-12T07:16:03,42.805,6.029,0.042,-0.01,0.02,105.0,104.0,102.0,13.4,1505.2,328.4,-0.7,1.8,2470.695,13.28,0.043,103.4
2022-01-12T07:19:03,42.805,6.029,0.038,-0.03,0.017,105.0,106.0,102.0,13.3,1505.2,325.8,-0.8,1.8,2470.758,13.28,0.048,128.3
2022-01-12T07:22:03,42.805,6.029,0.042,-0.025,0.0,105.0,105.0,103.0,13.4,1505.2,325.8,-0.8,1.8,2470.737,13.28,0.048,120.8
2022-01-12T07:25:03,42.805,6.029,0.038,0.007,-0.003,105.0,106.0,102.0,13.4,1505.2,328.5,-0.8,1.8,2470.72,13.28,0.038,79.6
2022-01-12T07:28:03,42.805,6.029,0.045,-0.019,-0.01,104.0,106.0,103.0,13.4,1505.2,326.0,-0.8,1.8,2470.729,13.28,0.048,112.9
2022-01-12T07:31:03,42.805,6.029,0.037,0.01,0.0,104.0,105.0,103.0,13.4,1505.2,326.1,-0.7,1.8,2470.725,13.28,0.038,74.9
2022-01-12T07:34:03,42.805,6.029,0.055,-0.007,0.009,106.0,105.0,104.0,13.4,1505.2,326.0,-0.8,1.8,2470.728,13.28,0.055,97.3
2022-01-12T07:37:03,42.805,6.029,0.016,-0.003,0.0,105.0,103.0,102.0,13.4,1505.2,327.1,-0.8,1.9,2470.741,13.28,0.016,100.6
2022-01-12T07:40:03,42.805,6.029,0.031,-0.005,0.007,104.0,104.0,103.0,13.4,1505.2,326.9,-0.8,1.8,2470.716,13.28,0.031,99.2
2022-01-12T07:43:03,42.805,6.029,0.034,-0.001,-0.014,105.0,105.0,102.0,13.3,1505.2,331.2,-0.7,1.8,2470.707,13.28,0.034,91.7
2022-01-12T07:46:03,42.805,6.029,0.035,-0.01,0.035,105.0,105.0,102.0,13.3,1505.2,331.8,-0.8,1.8,2470.739,13.28,0.036,105.9
2022-01-12T07:49:03,42.805,6.029,0.026,-0.004,-0.033,104.0,105.0,102.0,13.4,1505.2,328.8,-0.7,1.9,2470.712,13.28,0.026,98.7
2022-01-12T07:52:03,42.805,6.029,0.04,-0.014,-0.005,105.0,103.0,102.0,13.4,1505.2,325.3,-0.8,1.8,2470.689,13.28,0.042,109.3
2022-01-12T07:55:03,42.805,6.029,0.049,-0.027,-0.004,104.0,104.0,102.0,13.4,1505.2,330.7,-0.8,1.8,2470.734,13.28,0.055,118.9
2022-01-12T07:58:03,42.805,6.029,0.048,-0.026,-0.014,105.0,106.0,102.0,13.4,1505.2,326.4,-0.8,1.8,2470.76,13.28,0.054,118.4
2022-01-12T08:04:03,42.805,6.029,0.05,-0.015,-0.016,105.0,106.0,102.0,13.4,1505.2,331.5,-0.7,1.8,2470.78,13.28,0.052,106.7
2022-01-12T08:07:03,42.805,6.029,0.045,-0.014,0.007,105.0,105.0,102.0,13.3,1505.2,327.5,-0.7,1.8,2470.729,13.28,0.047,107.3
2022-01-12T08:10:03,42.805,6.029,0.019,-0.012,0.0,105.0,104.0,102.0,13.4,1505.2,326.2,-0.7,1.8,2470.733,13.28,0.022,122.3
2022-01-12T08:13:03,42.805,6.029,0.064,-0.021,0.003,103.0,104.0,104.0,13.3,1505.2,326.8,-0.8,1.8,2470.715,13.28,0.067,108.2
2022-01-12T08:16:03,42.805,6.029,0.042,-0.008,0.007,104.0,105.0,102.0,13.4,1505.2,327.1,-0.8,1.8,2470.751,13.28,0.042,100.8
2022-01-12T08:19:03,42.805,6.029,0.054,-0.015,-0.015,105.0,105.0,102.0,13.4,1505.2,325.8,-0.8,1.8,2470.736,13.28,0.056,105.5
2022-01-12T08:22:03,42.805,6.029,0.039,-0.01,-0.022,103.0,104.0,102.0,13.4,1505.2,329.5,-0.7,1.8,2470.705,13.28,0.04,104.4
2022-01-12T08:25:03,42.805,6.029,0.052,-0.019,0.01,105.0,104.0,102.0,13.4,1505.2,323.8,-0.8,1.8,2470.74,13.28,0.055,110.1
2022-01-12T08:28:03,42.805,6.029,0.051,-0.013,0.008,105.0,106.0,102.0,13.3,1505.2,329.9,-0.8,1.8,2470.713,13.28,0.052,104.3
2022-01-12T08:31:03,42.805,6.029,0.043,-0.016,0.008,106.0,106.0,102.0,13.3,1505.2,325.4,-0.7,1.8,2470.767,13.28,0.045,110.4
2022-01-12T08:34:03,42.805,6.029,0.033,-0.021,-0.007,105.0,105.0,103.0,13.3,1505.2,328.8,-0.8,1.8,2470.728,13.28,0.039,122.5
2022-01-12T08:37:03,42.805,6.029,0.037,-0.018,0.012,105.0,104.0,102.0,13.4,1505.2,329.0,-0.8,1.9,2470.705,13.28,0.041,115.9
2022-01-12T08:40:03,42.805,6.029,0.055,-0.019,-0.004,105.0,105.0,103.0,13.4,1505.2,327.9,-0.7,1.9,2470.764,13.28,0.058,109.1
2022-01-12T08:43:03,42.805,6.029,0.048,-0.012,-0.009,105.0,105.0,102.0,13.4,1505.2,328.5,-0.8,1.8,2470.707,13.28,0.049,104.0
2022-01-12T08:46:03,42.805,6.029,0.036,-0.014,-0.002,104.0,104.0,103.0,13.4,1505.2,326.0,-0.7,1.8,2470.712,13.28,0.038,111.2
2022-01-12T08:49:03,42.805,6.029,0.041,-0.034,-0.011,104.0,105.0,102.0,13.3,1505.2,328.5,-0.8,1.8,2470.737,13.28,0.053,129.7
2022-01-12T08:52:03,42.805,6.029,0.041,-0.016,-0.018,105.0,104.0,103.0,13.3,1505.2,327.3,-0.8,1.8,2470.737,13.28,0.044,111.3
2022-01-12T08:55:03,42.805,6.029,0.039,-0.001,0.015,104.0,105.0,103.0,13.3,1505.2,326.1,-0.8,1.8,2470.724,13.28,0.039,91.5
2022-01-12T08:58:03,42.805,6.029,0.056,-0.011,-0.005,104.0,105.0,103.0,13.4,1505.2,324.5,-0.8,1.9,2470.72,13.28,0.057,101.1
2022-01-12T09:04:03,42.805,6.029,0.043,-0.012,-0.039,105.0,105.0,102.0,13.4,1505.2,328.6,-0.8,1.8,2470.788,13.28,0.044,105.6
2022-01-12T09:07:03,42.805,6.029,0.044,-0.028,-0.016,105.0,104.0,103.0,13.4,1505.2,328.0,-0.7,1.8,2470.771,13.28,0.052,122.5
2022-01-12T09:10:03,42.805,6.029,0.064,-0.009,0.018,105.0,104.0,103.0,13.4,1505.2,327.3,-0.7,1.8,2470.733,13.28,0.064,98.0
2022-01-12T09:13:03,42.805,6.029,0.051,-0.032,-0.009,104.0,104.0,102.0,13.4,1505.2,325.9,-0.8,1.8,2470.714,13.28,0.06,122.1
2022-01-12T09:16:03,42.805,6.029,0.046,-0.025,-0.003,105.0,104.0,102.0,13.4,1505.2,329.4,-0.7,1.8,2470.732,13.28,0.052,118.5
2022-01-12T09:19:03,42.805,6.029,0.058,-0.008,0.02,104.0,104.0,102.0,13.4,1505.2,324.3,-0.7,1.8,2470.74,13.28,0.058,97.8
2022-01-12T09:22:03,42.805,6.029,0.045,-0.007,-0.013,104.0,104.0,102.0,13.4,1505.2,328.5,-0.8,1.8,2470.747,13.28,0.045,98.8
2022-01-12T09:25:03,42.805,6.029,0.058,-0.012,0.003,104.0,103.0,102.0,13.4,1505.2,326.6,-0.8,1.8,2470.739,13.28,0.059,101.7
2022-01-12T09:28:03,42.805,6.029,0.04,-0.017,-0.016,104.0,104.0,103.0,13.3,1505.2,326.3,-0.7,1.8,2470.722,13.28,0.043,113.0
2022-01-12T09:31:03,42.805,6.029,0.033,-0.013,-0.016,105.0,104.0,103.0,13.4,1505.2,327.4,-0.7,1.9,2470.748,13.28,0.035,111.5
2022-01-12T09:34:03,42.805,6.029,0.06,-0.03,0.009,104.0,105.0,102.0,13.3,1505.2,328.1,-0.7,1.8,2470.756,13.28,0.067,116.6
2022-01-12T09:37:03,42.805,6.029,0.024,-0.02,0.01,105.0,105.0,102.0,13.3,1505.2,329.3,-0.8,1.8,2470.759,13.28,0.031,129.8
2022-01-12T09:40:03,42.805,6.029,0.072,-0.03,0.004,104.0,104.0,103.0,13.4,1505.2,331.1,-0.8,1.8,2470.753,13.28,0.077,112.6
2022-01-12T09:43:03,42.805,6.029,0.057,-0.023,-0.006,105.0,105.0,102.0,13.4,1505.2,327.8,-0.8,1.8,2470.736,13.28,0.061,112.0
2022-01-12T09:46:03,42.805,6.029,0.035,-0.014,0.009,104.0,104.0,103.0,13.3,1505.2,325.0,-0.7,1.8,2470.776,13.28,0.037,111.8
2022-01-12T09:49:03,42.805,6.029,0.047,-0.015,0.014,105.0,105.0,102.0,13.4,1505.2,327.4,-0.7,1.8,2470.741,13.28,0.049,107.7
2022-01-12T09:52:03,42.805,6.029,0.066,0.0,0.005,105.0,105.0,102.0,13.3,1505.2,328.5,-0.7,1.8,2470.736,13.28,0.065,90.0
2022-01-12T09:55:03,42.805,6.029,0.039,-0.003,0.022,104.0,107.0,102.0,13.3,1505.2,330.3,-0.8,1.8,2470.764,13.28,0.039,94.4
2022-01-12T09:58:03,42.805,6.029,0.05,-0.009,-0.014,104.0,106.0,103.0,13.3,1505.2,324.3,-0.8,1.8,2470.698,13.28,0.05,100.2